Regional Weather Roundup
Issued by NWS

Home | Current Version | Previous Version | Text Only | Print | Product List | Glossary Off
Versions: 1 2 3 4 5 6 7 8 9 10 11 12 13 14 15 16 17 18 19 20 21 22 23 24 25 26 27 28 29 30 31 32 33 34 35 36 37 38 39 40 41 42 43 44 45 46 47 48 49 50

181
ASUS44 KJAN 210203
RWRMS

MISSISSIPPI HOURLY WEATHER ROUNDUP
NATIONAL WEATHER SERVICE JACKSON MS
900 PM CDT MON OCT 20 2014

NOTE: "FAIR: INDICATES FEW OR NO CLOUDS BELOW 12,000 FEET WITH NO
SIGNIFICANT WEATHER AND/OR OBSTRUCTIONS TO VISIBILITY.

MSZ001>002-007>008-010>013-018>021-025>028-034>036-210300-
NORTHWEST MISSISSIPPI

CITY           SKY/WX    TMP DP  RH WIND       PRES   REMARKS
CLARKSDALE     FAIR      61  55  82 CALM      30.05R
CLEVELAND      FAIR      61  56  84 CALM      30.03S
GREENWOOD      CLEAR     56  53  90 CALM      30.04R
GREENVILLE     CLEAR     61  54  77 CALM      30.03S
GRENADA          N/A    N/A N/A N/A MISG        N/A
OLIVE BRANCH   CLEAR     55  55 100 S3        30.04R
OXFORD         FAIR      54  52  94 CALM      30.06S
TUNICA         CLEAR     55  54  94 CALM      30.05R
$$

MSZ003>006-009-014>017-022>024-029>033-037>039-210300-
NORTHEAST MISSISSIPPI

CITY           SKY/WX    TMP DP  RH WIND       PRES   REMARKS
COLUMBUS AFB   CLEAR     55  53  93 CALM      30.04R
CORINTH        FAIR      54  52  94 CALM      30.03S
GOLDN TRIANGLE CLEAR     57  48  72 CALM      30.03S
STARKVILLE     FAIR      54  52  94 CALM      30.04R
TUPELO         CLEAR     58  54  86 CALM      30.04R
$$

MSZ040-058-210300-
CENTRAL MISSISSIPPI

CITY           SKY/WX    TMP DP  RH WIND       PRES   REMARKS
JACKSON INTL   PTCLDY    57  52  83 CALM      30.05R
JACKSON HAWKNS CLEAR     60  51  72 CALM      30.04S
MERIDIAN KEY   CLEAR     55  51  86 CALM      30.03S
MERIDIAN NAS   PTCLDY    57  52  83 CALM      30.04R
RAYMOND        FAIR      55  50  82 MISG      30.04S
VICKSBURG      CLEAR     54  52  93 CALM      30.05R
$$

MSZ059>079-210300-
SOUTH MISSISSIPPI

CITY           SKY/WX    TMP DP  RH WIND       PRES   REMARKS
BROOKHAVEN     FAIR      55  54  94 CALM      30.05S
COLUMBIA         N/A    N/A N/A N/A MISG        N/A
HATTIESBURG    CLEAR     58  56  93 CALM      30.03S
MCCOMB         CLEAR     58  53  84 CALM      30.03S
NATCHEZ        CLEAR     59  54  82 CALM      30.05R
PINE BELT      CLEAR     55  48  76 CALM      30.04S
$$

MSZ080>082-210300-
COASTAL MISSISSIPPI

CITY           SKY/WX    TMP DP  RH WIND       PRES   REMARKS
BILOXI         CLEAR     66  56  71 VRB3      30.01R
PASCAGOULA     CLEAR     54  51  90 CALM      30.01R
GULFPORT       CLEAR     61  55  81 CALM      30.00R
$$



USA.gov is the U.S. government's official web portal to all federal, state and local government web resources and services.